This is the latest recevied weather packets stored in our database for station/object PD2BVG. If no packets are shown the sender has not sent any weather packets the latest 1 day(s).
| Time | Temp. | Humidity | Pressure | Rain* | Wind** | Luminosity | Snow |
|---|---|---|---|---|---|---|---|
| 1778022993 | 10.56° C | 79% | 1010.9 hPa | 0 mm | 3.58 m/s, 348° | 0 W/m² | - |
| 1778022932 | 10.56° C | 79% | 1010.9 hPa | 0 mm | 3.13 m/s, 320° | 0 W/m² | - |
| 1778022872 | 10.56° C | 79% | 1010.9 hPa | 0 mm | 3.58 m/s, 344° | 0 W/m² | - |
| 1778022812 | 10.56° C | 79% | 1010.9 hPa | 0 mm | 4.02 m/s, 341° | 0 W/m² | - |
| 1778022753 | 10.56° C | 79% | 1010.9 hPa | 0 mm | 4.02 m/s, 0° | 0 W/m² | - |
| 1778022694 | 10.56° C | 79% | 1010.9 hPa | 0 mm | 3.58 m/s, 3° | 0 W/m² | - |
| 1778022632 | 10.56° C | 79% | 1010.9 hPa | 0 mm | 3.58 m/s, 0° | 0 W/m² | - |
| 1778022572 | 10.56° C | 79% | 1010.9 hPa | 0 mm | 3.58 m/s, 334° | 0 W/m² | - |
| 1778022513 | 10.56° C | 79% | 1010.9 hPa | 0 mm | 3.13 m/s, 1° | 0 W/m² | - |
| 1778022452 | 10.56° C | 79% | 1010.8 hPa | 0 mm | 4.02 m/s, 354° | 0 W/m² | - |
| 1778022393 | 10.56° C | 79% | 1010.9 hPa | 0 mm | 4.02 m/s, 0° | 0 W/m² | - |
| 1778022333 | 10.56° C | 79% | 1010.9 hPa | 0 mm | 4.02 m/s, 348° | 0 W/m² | - |
| 1778022272 | 10.56° C | 79% | 1011 hPa | 0 mm | 4.02 m/s, 32° | 0 W/m² | - |
| 1778022212 | 10.56° C | 79% | 1010.9 hPa | 0 mm | 4.02 m/s, 357° | 0 W/m² | - |
| 1778022152 | 10.56° C | 79% | 1011 hPa | 0 mm | 4.02 m/s, 357° | 0 W/m² | - |
| 1778022093 | 10.56° C | 79% | 1011 hPa | 0 mm | 3.58 m/s, 358° | 0 W/m² | - |
| 1778022033 | 10.56° C | 79% | 1010.9 hPa | 0 mm | 3.13 m/s, 355° | 0 W/m² | - |
| 1778021973 | 10.56° C | 79% | 1010.9 hPa | 0 mm | 2.68 m/s, 330° | 0 W/m² | - |
| 1778021912 | 10.56° C | 79% | 1010.9 hPa | 0 mm | 2.68 m/s, 334° | 0 W/m² | - |
| 1778021853 | 10.56° C | 79% | 1011 hPa | 0 mm | 3.13 m/s, 0° | 0 W/m² | - |
| 1778021792 | 10.56° C | 79% | 1011 hPa | 0 mm | 3.58 m/s, 355° | 0 W/m² | - |
| 1778021734 | 10.56° C | 79% | 1011 hPa | 0 mm | 3.58 m/s, 0° | 0 W/m² | - |
| 1778021674 | 10.56° C | 79% | 1011 hPa | 0 mm | 2.68 m/s, 3° | 0 W/m² | - |
| 1778021614 | 10.56° C | 79% | 1011 hPa | 0 mm | 3.13 m/s, 345° | 0 W/m² | - |
| 1778021554 | 10.56° C | 79% | 1011 hPa | 0 mm | 3.58 m/s, 0° | 0 W/m² | - |
* Rain latest hour (hover to see other rain measurements)
** Current wind speed in m/s (hover to see current wind gust speed)